Simultaneous Nadir Overpasses (SNOs) Predictions

Prediction of SNOs between NOAA-19 and METOP-C Satellite Orbit:

Table of predicted SNOs for the next 14.0 days since TLE Epoch: 8/26/2023
Index Date (NOAA-19) Time (NOAA-19) Lat,Lon (NOAA-19) SZA (NOAA-19 ) Date (METOP-C) Time (METOP-C) Lat,Lon (METOP-C) SZA (METOP-C ) Distance(km) Time Diff (sec)
1 08/26/2023 22:47:35 80.86,-129.05 72.05 08/26/2023 22:48:40 80.86,-129.05 72.08 0.44 65
2 08/26/2023 23:38:37 -80.86, 38.36 107.93 08/26/2023 23:39:19 -80.87, 38.34 107.91 0.49 42
3 08/27/2023 00:29:33 80.86,-154.59 72.07 08/27/2023 00:30:01 80.86,-154.56 72.08 0.68 28
4 08/27/2023 01:20:36 -80.86, 12.83 107.90 08/27/2023 01:20:41 -80.86, 12.83 107.91 0.57 5
5 08/27/2023 02:11:31 80.87,-179.76 72.13 08/27/2023 02:11:22 80.87,-179.72 72.13 0.67 9
6 08/27/2023 03:02:34 -80.87, -12.34 107.84 08/27/2023 03:02:02 -80.87, -12.33 107.86 0.30 32
7 08/27/2023 03:53:29 80.87, 155.08 72.19 08/27/2023 03:52:43 80.87, 155.12 72.18 0.82 46
8 08/27/2023 04:44:32 -80.88, -37.50 107.78 08/27/2023 04:43:23 -80.88, -37.48 107.81 0.27 69
9 09/07/2023 10:59:34 -80.84,-132.70 103.80 09/07/2023 11:00:41 -80.84,-132.52 103.75 3.26 67
10 09/07/2023 11:50:27 80.84, 34.88 76.25 09/07/2023 11:51:22 80.85, 34.92 76.28 0.66 55
11 09/07/2023 12:41:31 -80.85,-157.51 103.70 09/07/2023 12:42:02 -80.85,-157.68 103.70 3.07 31
12 09/07/2023 13:32:25 80.85, 9.71 76.32 09/07/2023 13:32:43 80.86, 9.75 76.33 0.96 18
13 09/07/2023 14:23:29 -80.86, 177.32 103.64 09/07/2023 14:23:23 -80.86, 177.16 103.65 2.85 6
14 09/07/2023 15:14:23 80.86, -15.47 76.38 09/07/2023 15:14:04 80.87, -15.41 76.38 1.27 19
15 09/07/2023 16:05:28 -80.86, 151.78 103.61 09/07/2023 16:04:45 -80.85, 151.64 103.65 2.60 43



Historial Predications of SNOs between NOAA-19 and METOP-C
